Weather History for KDAB - March, 2013

Change the Weather History Date:

Monday, March 25, 2013

  Actual Average Record
Temperature  
Mean Temperature 61 °F 66 °F  
Max Temperature 71 °F 76 °F 88 °F (1954)
Min Temperature 51 °F 56 °F 32 °F (1968)
Degree Days  
Heating Degree Days 4 2  
Month to date heating degree days 173 84  
Since 1 July heating degree days 639 766  
Cooling Degree Days 0 3  
Month to date cooling degree days 32 60  
Year to date cooling degree days 165 125  
Growing Degree Days 12 (Base 50)    
Moisture  
Dew Point 40 °F    
Average Humidity 54    
Maximum Humidity 90    
Minimum Humidity 17    
Precipitation  
Precipitation 0.00 in 0.14 in 2.69 in (2005)
Month to date precipitation 0.82 3.43  
Year to date precipitation 2.70 8.95  
Sea Level Pressure  
Sea Level Pressure 29.85 in    
Wind  
Wind Speed 12 mph (West)    
Max Wind Speed 22 mph    
Max Gust Speed 26 mph    
Visibility 10 miles    
Events      
T = Trace of Precipitation, MM = Missing Value Source: NWS Daily Summary

Daily Weather History Graph

Daily Weather History Graph

Search for Another Location

Airport or City:

Trip Planner

Search our weather history database for the weather conditions in past years. The results will help you decide how hot, cold, wet, or windy it might be!

Date:

Astronomy

Mar. 25, 2013 Rise Set
Actual Time 7:21 AM EDT 7:38 PM EDT
Civil Twilight 6:58 AM EDT 8:02 PM EDT
Nautical Twilight 6:30 AM EDT 8:30 PM EDT
Astronomical Twilight 6:02 AM EDT 8:58 PM EDT
Moon 6:12 PM EDT 5:57 AM EDT
Length of Visible Light 13h 04m
Length of Day
12h 16m
Waxing Gibbous, 96% of the Moon is Illuminated
Mar 25
Waxing Gibbous
Mar 27
Full
Apr 3
Last Quarter
Apr 10
New
Apr 18
First Quarter

Hourly Weather History & Observations

Time (EDT) Temp. Dew Point Humidity Pressure Visibility Wind Dir Wind Speed Gust Speed Precip Events Conditions
12:53 AM 66.0 °F 63.0 °F 90% 29.70 in 7.0 mi SW 9.2 mph - N/A   Clear
1:53 AM 66.0 °F 62.1 °F 87% 29.70 in 7.0 mi SW 13.8 mph - N/A   Clear
2:53 AM 64.9 °F 61.0 °F 87% 29.71 in 8.0 mi WSW 12.7 mph - N/A   Clear
3:53 AM 64.0 °F 61.0 °F 90% 29.73 in 9.0 mi WSW 12.7 mph - N/A   Mostly Cloudy
4:53 AM 64.9 °F 60.1 °F 84% 29.74 in 10.0 mi West 13.8 mph 24.2 mph N/A   Overcast
5:16 AM 64.4 °F 59.0 °F 83% 29.75 in 10.0 mi West 10.4 mph - N/A   Partly Cloudy
5:53 AM 63.0 °F 59.0 °F 87% 29.76 in 10.0 mi West 8.1 mph - N/A   Partly Cloudy
6:53 AM 62.1 °F 44.1 °F 52% 29.79 in 10.0 mi WNW 10.4 mph 20.7 mph N/A   Partly Cloudy
7:53 AM 59.0 °F 43.0 °F 55% 29.82 in 10.0 mi WNW 6.9 mph - N/A   Clear
8:53 AM 57.9 °F 41.0 °F 53% 29.86 in 10.0 mi WNW 11.5 mph - N/A   Clear
9:53 AM 60.1 °F 36.0 °F 41% 29.89 in 10.0 mi WNW 12.7 mph 17.3 mph N/A   Clear
10:53 AM 62.1 °F 36.0 °F 38% 29.91 in 10.0 mi NW 15.0 mph 20.7 mph N/A   Clear
11:53 AM 64.9 °F 36.0 °F 34% 29.91 in 10.0 mi West 12.7 mph - N/A   Clear
12:53 PM 69.1 °F 33.1 °F 26% 29.90 in 10.0 mi West 19.6 mph - N/A   Clear
1:53 PM 68.0 °F 28.9 °F 23% 29.89 in 10.0 mi WNW 17.3 mph 25.3 mph N/A   Clear
2:53 PM 69.1 °F 28.0 °F 22% 29.88 in 10.0 mi West 13.8 mph 23.0 mph N/A   Clear
3:53 PM 70.0 °F 26.1 °F 19% 29.87 in 10.0 mi West 15.0 mph 21.9 mph N/A   Clear
4:53 PM 70.0 °F 25.0 °F 18% 29.86 in 10.0 mi West 16.1 mph - N/A   Clear
5:53 PM 69.1 °F 23.0 °F 18% 29.87 in 10.0 mi West 15.0 mph 24.2 mph N/A   Clear
6:53 PM 66.9 °F 21.9 °F 18% 29.90 in 10.0 mi West 12.7 mph 20.7 mph N/A   Clear
7:53 PM 63.0 °F 25.0 °F 24% 29.92 in 10.0 mi West 5.8 mph - N/A   Partly Cloudy
8:53 PM 57.9 °F 28.0 °F 32% 29.95 in 10.0 mi West 4.6 mph - N/A   Clear
9:53 PM 54.0 °F 28.0 °F 37% 29.98 in 10.0 mi West 5.8 mph - N/A   Clear
10:53 PM 54.0 °F 33.1 °F 45% 30.04 in 10.0 mi West 6.9 mph - N/A   Partly Cloudy
11:53 PM 54.0 °F 28.9 °F 38% 30.04 in 10.0 mi NW 5.8 mph - N/A   Mostly Cloudy